Time,TemperatureF,DewpointF,PressureIn,WindDirection,WindDirectionDegrees,WindSpeedMPH,WindSpeedGustMPH,Humidity,HourlyPrecipIn,Conditions,Clouds,dailyrainin,SoftwareType,DateUTC
2013-11-14 00:02:00,28.7,19.3,30.12,North,0,0.0,5.0,67,-99.99,,,-99.99,PWS SA v1.10,2013-11-14 05:02:00,
2013-11-14 00:04:00,28.8,19.9,30.12,North,0,0.0,5.0,69,-99.99,,,-99.99,PWS SA v1.10,2013-11-14 05:04:00,
2013-11-14 00:06:00,28.9,19.4,30.12,SW,226,1.7,5.0,68,-99.99,,,-99.99,PWS SA v1.10,2013-11-14 05:06:00,
2013-11-14 00:10:00,29.1,19.4,30.12,North,0,0.0,5.0,66,-99.99,,,-99.99,PWS SA v1.10,2013-11-14 05:10:00,
2013-11-14 00:16:00,29.2,19.7,30.11,North,0,0.0,3.0,67,-99.99,,,-99.99,PWS SA v1.10,2013-11-14 05:16:00,
2013-11-14 00:18:00,29.3,19.6,30.11,North,0,0.0,3.0,67,-99.99,,,-99.99,PWS SA v1.10,2013-11-14 05:18:00,
2013-11-14 00:22:00,29.1,19.8,30.11,North,0,0.0,3.0,67,-99.99,,,-99.99,PWS SA v1.10,2013-11-14 05:22:00,
2013-11-14 00:28:00,29.1,20.3,30.11,North,0,0.0,0.0,69,-99.99,,,-99.99,PWS SA v1.10,2013-11-14 05:28:00,
2013-11-14 00:34:00,29.0,20.0,30.11,SSW,196,3.4,3.4,68,-99.99,,,-99.99,PWS SA v1.10,2013-11-14 05:34:00,
2013-11-14 00:40:00,29.2,20.1,30.10,North,0,0.0,3.0,68,-99.99,,,-99.99,PWS SA v1.10,2013-11-14 05:40:00,
2013-11-14 00:46:00,29.4,19.9,30.10,North,0,0.0,3.0,67,-99.99,,,-99.99,PWS SA v1.10,2013-11-14 05:46:00,
2013-11-14 00:52:00,29.5,19.1,30.10,North,0,0.0,1.0,65,-99.99,,,-99.99,PWS SA v1.10,2013-11-14 05:52:00,
2013-11-14 00:58:00,29.5,19.5,30.09,North,0,0.0,3.0,66,-99.99,,,-99.99,PWS SA v1.10,2013-11-14 05:58:00,
2013-11-14 01:04:00,29.7,19.9,30.09,North,0,0.0,3.0,66,-99.99,,,-99.99,PWS SA v1.10,2013-11-14 06:04:00,
2013-11-14 01:10:00,29.6,19.5,30.10,West,265,1.7,1.7,66,-99.99,,,-99.99,PWS SA v1.10,2013-11-14 06:10:00,
2013-11-14 01:16:00,29.6,20.3,30.09,North,0,0.0,1.0,68,-99.99,,,-99.99,PWS SA v1.10,2013-11-14 06:16:00,
2013-11-14 01:22:00,29.4,20.5,30.09,North,0,0.0,0.0,68,-99.99,,,-99.99,PWS SA v1.10,2013-11-14 06:22:00,
2013-11-14 01:28:00,29.3,20.0,30.09,North,0,0.0,0.0,67,-99.99,,,-99.99,PWS SA v1.10,2013-11-14 06:28:00,
2013-11-14 01:34:00,29.3,19.7,30.09,North,0,0.0,3.0,67,-99.99,,,-99.99,PWS SA v1.10,2013-11-14 06:34:00,
2013-11-14 01:40:00,29.1,19.9,30.08,North,0,0.0,3.0,68,-99.99,,,-99.99,PWS SA v1.10,2013-11-14 06:40:00,
2013-11-14 01:46:00,29.4,20.0,30.08,North,0,0.0,3.0,68,-99.99,,,-99.99,PWS SA v1.10,2013-11-14 06:46:00,
2013-11-14 01:52:00,29.6,19.5,30.09,West,259,3.4,3.4,66,-99.99,,,-99.99,PWS SA v1.10,2013-11-14 06:52:00,
2013-11-14 01:58:00,29.8,19.9,30.09,North,0,0.0,3.0,66,-99.99,,,-99.99,PWS SA v1.10,2013-11-14 06:58:00,
2013-11-14 02:04:00,29.8,19.9,30.09,North,0,0.0,3.0,66,-99.99,,,-99.99,PWS SA v1.10,2013-11-14 07:04:00,
2013-11-14 02:10:00,29.9,20.0,30.09,North,0,0.0,0.0,66,-99.99,,,-99.99,PWS SA v1.10,2013-11-14 07:10:00,
2013-11-14 02:16:00,30.1,20.3,30.09,North,0,0.0,1.0,66,-99.99,,,-99.99,PWS SA v1.10,2013-11-14 07:16:00,
2013-11-14 02:22:00,30.1,19.7,30.08,SSW,209,3.4,3.4,64,-99.99,,,-99.99,PWS SA v1.10,2013-11-14 07:22:00,
2013-11-14 02:28:00,30.3,20.4,30.08,North,0,0.0,3.0,66,-99.99,,,-99.99,PWS SA v1.10,2013-11-14 07:28:00,
2013-11-14 02:34:00,30.4,20.7,30.09,North,0,0.0,3.0,66,-99.99,,,-99.99,PWS SA v1.10,2013-11-14 07:34:00,
2013-11-14 02:40:00,30.4,20.2,30.07,SW,221,1.7,3.0,65,-99.99,,,-99.99,PWS SA v1.10,2013-11-14 07:40:00,
2013-11-14 02:46:00,30.5,20.4,30.07,SSW,198,1.7,5.0,66,-99.99,,,-99.99,PWS SA v1.10,2013-11-14 07:46:00,
2013-11-14 02:52:00,30.5,20.2,30.07,SSE,154,3.4,5.0,64,-99.99,,,-99.99,PWS SA v1.10,2013-11-14 07:52:00,
2013-11-14 02:58:00,30.6,20.7,30.07,North,0,0.0,5.0,66,-99.99,,,-99.99,PWS SA v1.10,2013-11-14 07:58:00,
2013-11-14 03:04:00,30.7,20.4,30.07,SW,231,1.7,5.0,65,-99.99,,,-99.99,PWS SA v1.10,2013-11-14 08:04:00,
2013-11-14 03:10:00,30.7,20.9,30.06,West,272,3.4,5.0,66,-99.99,,,-99.99,PWS SA v1.10,2013-11-14 08:10:00,
2013-11-14 03:16:00,30.8,20.2,30.06,North,0,0.0,5.0,64,-99.99,,,-99.99,PWS SA v1.10,2013-11-14 08:16:00,
2013-11-14 03:22:00,31.0,21.3,30.06,SE,129,1.7,3.0,66,-99.99,,,-99.99,PWS SA v1.10,2013-11-14 08:22:00,
2013-11-14 03:28:00,31.0,20.8,30.06,North,0,0.0,5.0,65,-99.99,,,-99.99,PWS SA v1.10,2013-11-14 08:28:00,
2013-11-14 03:34:00,30.8,20.9,30.05,North,0,0.0,5.0,65,-99.99,,,-99.99,PWS SA v1.10,2013-11-14 08:34:00,
2013-11-14 03:40:00,31.0,21.2,30.05,North,0,0.0,3.0,66,-99.99,,,-99.99,PWS SA v1.10,2013-11-14 08:40:00,
2013-11-14 03:46:00,31.0,21.7,30.05,North,0,0.0,3.0,67,-99.99,,,-99.99,PWS SA v1.10,2013-11-14 08:46:00,
2013-11-14 03:52:00,30.9,21.2,30.05,North,0,0.0,3.0,67,-99.99,,,-99.99,PWS SA v1.10,2013-11-14 08:52:00,
2013-11-14 03:58:00,30.9,21.4,30.05,SSW,206,3.4,3.4,67,-99.99,,,-99.99,PWS SA v1.10,2013-11-14 08:58:00,
2013-11-14 04:04:00,31.0,21.6,30.05,North,0,0.0,3.0,67,-99.99,,,-99.99,PWS SA v1.10,2013-11-14 09:04:00,
2013-11-14 04:10:00,31.2,21.8,30.05,North,0,0.0,3.0,67,-99.99,,,-99.99,PWS SA v1.10,2013-11-14 09:10:00,
2013-11-14 04:16:00,31.2,21.7,30.06,North,0,0.0,3.0,67,-99.99,,,-99.99,PWS SA v1.10,2013-11-14 09:16:00,
2013-11-14 04:22:00,31.2,22.2,30.05,West,276,1.7,3.0,69,-99.99,,,-99.99,PWS SA v1.10,2013-11-14 09:22:00,
2013-11-14 04:28:00,31.2,21.4,30.05,North,0,0.0,5.0,66,-99.99,,,-99.99,PWS SA v1.10,2013-11-14 09:28:00,
2013-11-14 04:34:00,31.5,22.3,30.06,North,0,0.0,5.0,67,-99.99,,,-99.99,PWS SA v1.10,2013-11-14 09:34:00,
2013-11-14 04:40:00,31.5,21.9,30.05,WSW,238,1.7,5.0,67,-99.99,,,-99.99,PWS SA v1.10,2013-11-14 09:40:00,
2013-11-14 04:46:00,31.8,21.8,30.05,North,0,0.0,1.0,65,-99.99,,,-99.99,PWS SA v1.10,2013-11-14 09:46:00,
2013-11-14 04:52:00,31.8,22.1,30.05,North,0,0.0,1.0,66,-99.99,,,-99.99,PWS SA v1.10,2013-11-14 09:52:00,
2013-11-14 04:58:00,31.7,21.5,30.04,West,261,3.4,6.0,66,-99.99,,,-99.99,PWS SA v1.10,2013-11-14 09:58:00,
2013-11-14 05:04:00,31.9,21.6,30.04,West,264,5.1,6.0,65,-99.99,,,-99.99,PWS SA v1.10,2013-11-14 10:04:00,
2013-11-14 05:10:00,32.1,21.6,30.04,SW,223,5.1,8.0,65,-99.99,,,-99.99,PWS SA v1.10,2013-11-14 10:10:00,
2013-11-14 05:16:00,32.2,21.9,30.04,West,261,5.1,8.0,65,-99.99,,,-99.99,PWS SA v1.10,2013-11-14 10:16:00,
2013-11-14 05:22:00,32.3,21.7,30.04,WNW,301,3.4,5.0,65,-99.99,,,-99.99,PWS SA v1.10,2013-11-14 10:22:00,
2013-11-14 05:28:00,32.2,22.2,30.03,SW,225,1.7,5.0,65,-99.99,,,-99.99,PWS SA v1.10,2013-11-14 10:28:00,
2013-11-14 05:34:00,32.4,22.1,30.04,West,269,6.8,6.8,66,-99.99,,,-99.99,PWS SA v1.10,2013-11-14 10:34:00,
2013-11-14 05:40:00,32.5,21.7,30.04,WSW,239,1.7,6.0,64,-99.99,,,-99.99,PWS SA v1.10,2013-11-14 10:40:00,
2013-11-14 05:46:00,32.5,21.9,30.04,SW,227,3.4,6.0,64,-99.99,,,-99.99,PWS SA v1.10,2013-11-14 10:46:00,
2013-11-14 05:52:00,32.5,22.0,30.05,WNW,288,1.7,8.0,64,-99.99,,,-99.99,PWS SA v1.10,2013-11-14 10:52:00,
2013-11-14 05:58:00,32.8,22.4,30.05,North,0,0.0,8.0,66,-99.99,,,-99.99,PWS SA v1.10,2013-11-14 10:58:00,
2013-11-14 06:04:00,32.9,22.1,30.05,North,0,0.0,8.0,64,-99.99,,,-99.99,PWS SA v1.10,2013-11-14 11:04:00,
2013-11-14 06:10:00,32.9,22.5,30.05,West,272,3.4,8.0,65,-99.99,,,-99.99,PWS SA v1.10,2013-11-14 11:10:00,
2013-11-14 06:16:00,33.1,22.5,30.05,West,277,5.1,8.0,65,-99.99,,,-99.99,PWS SA v1.10,2013-11-14 11:16:00,
2013-11-14 06:22:00,33.2,22.1,30.05,West,278,3.4,6.0,63,-99.99,,,-99.99,PWS SA v1.10,2013-11-14 11:22:00,
2013-11-14 06:28:00,33.2,22.0,30.06,SW,231,1.7,6.0,63,-99.99,,,-99.99,PWS SA v1.10,2013-11-14 11:28:00,
2013-11-14 06:34:00,33.2,22.1,30.06,SW,214,5.1,5.1,63,-99.99,,,-99.99,PWS SA v1.10,2013-11-14 11:34:00,
2013-11-14 06:40:00,33.1,21.8,30.05,West,274,6.8,6.8,63,-99.99,,,-99.99,PWS SA v1.10,2013-11-14 11:40:00,
2013-11-14 06:46:00,33.4,22.1,30.05,North,0,0.0,6.0,63,-99.99,,,-99.99,PWS SA v1.10,2013-11-14 11:46:00,
2013-11-14 06:52:00,33.4,22.4,30.05,SW,214,1.7,6.0,63,-99.99,,,-99.99,PWS SA v1.10,2013-11-14 11:52:00,
2013-11-14 06:58:00,33.5,22.4,30.05,West,259,5.1,5.1,63,-99.99,,,-99.99,PWS SA v1.10,2013-11-14 11:58:00,
2013-11-14 07:04:00,33.4,22.2,30.06,South,169,3.4,5.0,63,-99.99,,,-99.99,PWS SA v1.10,2013-11-14 12:04:00,
2013-11-14 07:10:00,33.5,22.5,30.06,North,0,0.0,5.0,63,-99.99,,,-99.99,PWS SA v1.10,2013-11-14 12:10:00,
2013-11-14 07:16:00,33.6,22.4,30.06,North,0,0.0,3.0,63,-99.99,,,-99.99,PWS SA v1.10,2013-11-14 12:16:00,
2013-11-14 07:22:00,33.8,22.7,30.06,North,0,0.0,6.0,63,-99.99,,,-99.99,PWS SA v1.10,2013-11-14 12:22:00,
2013-11-14 07:28:00,33.9,22.6,30.06,West,262,1.7,6.0,63,-99.99,,,-99.99,PWS SA v1.10,2013-11-14 12:28:00,
2013-11-14 07:34:00,34.0,22.5,30.07,North,0,0.0,6.0,62,-99.99,,,-99.99,PWS SA v1.10,2013-11-14 12:34:00,
2013-11-14 07:40:00,34.0,22.4,30.06,SSE,168,6.8,6.8,62,-99.99,,,-99.99,PWS SA v1.10,2013-11-14 12:40:00,
2013-11-14 07:46:00,33.9,22.5,30.07,SW,233,3.4,6.0,63,-99.99,,,-99.99,PWS SA v1.10,2013-11-14 12:46:00,
2013-11-14 07:52:00,34.1,22.1,30.06,North,0,0.0,6.0,61,-99.99,,,-99.99,PWS SA v1.10,2013-11-14 12:52:00,
2013-11-14 07:58:00,34.0,22.9,30.06,SW,220,1.7,5.0,63,-99.99,,,-99.99,PWS SA v1.10,2013-11-14 12:58:00,
2013-11-14 08:04:00,34.0,22.4,30.06,North,0,0.0,5.0,62,-99.99,,,-99.99,PWS SA v1.10,2013-11-14 13:04:00,
2013-11-14 08:10:00,34.3,22.4,30.06,North,0,0.0,5.0,62,-99.99,,,-99.99,PWS SA v1.10,2013-11-14 13:10:00,
2013-11-14 08:16:00,34.5,22.5,30.07,West,272,5.1,5.1,61,-99.99,,,-99.99,PWS SA v1.10,2013-11-14 13:16:00,
2013-11-14 08:22:00,34.9,22.6,30.06,SW,231,5.1,6.0,60,-99.99,,,-99.99,PWS SA v1.10,2013-11-14 13:22:00,
2013-11-14 08:28:00,34.9,22.7,30.06,SW,228,1.7,6.0,60,-99.99,,,-99.99,PWS SA v1.10,2013-11-14 13:28:00,
2013-11-14 08:34:00,35.7,22.4,30.06,West,262,1.7,5.0,58,-99.99,,,-99.99,PWS SA v1.10,2013-11-14 13:34:00,
2013-11-14 08:40:00,36.1,22.1,30.07,SW,226,3.4,5.0,57,-99.99,,,-99.99,PWS SA v1.10,2013-11-14 13:40:00,
2013-11-14 08:46:00,36.5,22.8,30.06,WSW,256,5.1,5.1,57,-99.99,,,-99.99,PWS SA v1.10,2013-11-14 13:46:00,
2013-11-14 08:52:00,36.8,22.3,30.06,North,0,0.0,5.0,56,-99.99,,,-99.99,PWS SA v1.10,2013-11-14 13:52:00,
2013-11-14 08:58:00,37.5,22.1,30.06,SSW,210,3.4,6.0,54,-99.99,,,-99.99,PWS SA v1.10,2013-11-14 13:58:00,
2013-11-14 09:04:00,37.9,22.5,30.06,North,0,0.0,6.0,53,-99.99,,,-99.99,PWS SA v1.10,2013-11-14 14:04:00,
2013-11-14 09:10:00,38.2,22.0,30.06,North,0,0.0,6.0,52,-99.99,,,-99.99,PWS SA v1.10,2013-11-14 14:10:00,
2013-11-14 09:16:00,38.5,22.3,30.06,SW,232,6.8,10.0,52,-99.99,,,-99.99,PWS SA v1.10,2013-11-14 14:16:00,
2013-11-14 09:22:00,38.8,22.0,30.06,SW,229,1.7,10.0,51,-99.99,,,-99.99,PWS SA v1.10,2013-11-14 14:22:00,
2013-11-14 09:28:00,39.3,22.0,30.06,WNW,286,6.8,8.0,49,-99.99,,,-99.99,PWS SA v1.10,2013-11-14 14:28:00,
2013-11-14 09:34:00,39.5,21.8,30.06,WSW,245,1.7,8.0,49,-99.99,,,-99.99,PWS SA v1.10,2013-11-14 14:34:00,
2013-11-14 09:40:00,39.9,21.7,30.06,WNW,295,5.1,8.0,48,-99.99,,,-99.99,PWS SA v1.10,2013-11-14 14:40:00,
2013-11-14 09:46:00,40.2,22.6,30.06,West,260,5.1,8.0,49,-99.99,,,-99.99,PWS SA v1.10,2013-11-14 14:46:00,
2013-11-14 09:52:00,40.5,22.6,30.05,North,0,0.0,8.0,48,-99.99,,,-99.99,PWS SA v1.10,2013-11-14 14:52:00,
2013-11-14 09:58:00,40.8,21.4,30.06,SW,234,5.1,5.1,46,-99.99,,,-99.99,PWS SA v1.10,2013-11-14 14:58:00,
2013-11-14 10:04:00,40.8,21.8,30.06,South,190,5.1,5.1,46,-99.99,,,-99.99,PWS SA v1.10,2013-11-14 15:04:00,
2013-11-14 10:10:00,41.5,22.5,30.05,SW,219,1.7,5.0,46,-99.99,,,-99.99,PWS SA v1.10,2013-11-14 15:10:00,
2013-11-14 10:16:00,41.7,22.4,30.05,WSW,246,1.7,6.0,46,-99.99,,,-99.99,PWS SA v1.10,2013-11-14 15:16:00,
2013-11-14 10:22:00,41.7,22.0,30.05,WSW,253,3.4,6.0,45,-99.99,,,-99.99,PWS SA v1.10,2013-11-14 15:22:00,
2013-11-14 10:28:00,42.1,22.6,30.05,North,350,3.4,8.0,46,-99.99,,,-99.99,PWS SA v1.10,2013-11-14 15:28:00,
2013-11-14 10:34:00,42.7,21.8,30.05,North,0,0.0,8.0,43,-99.99,,,-99.99,PWS SA v1.10,2013-11-14 15:34:00,
2013-11-14 10:40:00,43.4,22.1,30.04,WSW,254,8.5,8.5,43,-99.99,,,-99.99,PWS SA v1.10,2013-11-14 15:40:00,
2013-11-14 10:46:00,43.6,21.8,30.04,West,263,1.7,8.0,42,-99.99,,,-99.99,PWS SA v1.10,2013-11-14 15:46:00,
2013-11-14 10:52:00,44.0,22.1,30.04,SW,226,6.8,8.0,42,-99.99,,,-99.99,PWS SA v1.10,2013-11-14 15:52:00,
2013-11-14 10:58:00,44.0,22.5,30.04,WSW,240,5.1,8.0,42,-99.99,,,-99.99,PWS SA v1.10,2013-11-14 15:58:00,
2013-11-14 11:04:00,44.8,22.0,30.03,SW,231,11.9,11.9,40,-99.99,,,-99.99,PWS SA v1.10,2013-11-14 16:04:00,
2013-11-14 11:10:00,44.5,21.9,30.03,SSW,208,5.1,11.0,41,-99.99,,,-99.99,PWS SA v1.10,2013-11-14 16:10:00,
2013-11-14 11:16:00,44.3,22.2,30.03,West,276,8.5,11.0,42,-99.99,,,-99.99,PWS SA v1.10,2013-11-14 16:16:00,
2013-11-14 11:22:00,44.9,22.1,30.03,WSW,257,6.8,8.0,41,-99.99,,,-99.99,PWS SA v1.10,2013-11-14 16:22:00,
2013-11-14 11:28:00,44.9,22.0,30.03,WSW,248,6.8,8.0,40,-99.99,,,-99.99,PWS SA v1.10,2013-11-14 16:28:00,
2013-11-14 11:34:00,45.6,21.8,30.02,NW,318,1.7,6.0,40,-99.99,,,-99.99,PWS SA v1.10,2013-11-14 16:34:00,
2013-11-14 11:40:00,45.9,22.4,30.02,South,186,1.7,8.0,40,-99.99,,,-99.99,PWS SA v1.10,2013-11-14 16:40:00,
2013-11-14 11:46:00,45.5,23.0,30.02,North,0,0.0,8.0,41,-99.99,,,-99.99,PWS SA v1.10,2013-11-14 16:46:00,
2013-11-14 11:52:00,45.7,22.2,30.02,South,180,3.4,6.0,39,-99.99,,,-99.99,PWS SA v1.10,2013-11-14 16:52:00,
2013-11-14 11:58:00,45.7,22.6,30.02,WSW,242,8.5,8.5,40,-99.99,,,-99.99,PWS SA v1.10,2013-11-14 16:58:00,
2013-11-14 12:04:00,46.1,22.4,30.02,NW,306,5.1,10.0,39,-99.99,,,-99.99,PWS SA v1.10,2013-11-14 17:04:00,
2013-11-14 12:10:00,46.1,23.0,30.02,SSE,155,1.7,10.0,40,-99.99,,,-99.99,PWS SA v1.10,2013-11-14 17:10:00,
2013-11-14 12:16:00,46.1,23.4,30.01,WNW,283,5.1,6.0,41,-99.99,,,-99.99,PWS SA v1.10,2013-11-14 17:16:00,
2013-11-14 12:22:00,46.5,23.6,30.01,NNW,340,3.4,8.0,41,-99.99,,,-99.99,PWS SA v1.10,2013-11-14 17:22:00,
2013-11-14 12:28:00,46.9,22.8,30.01,West,262,3.4,10.0,39,-99.99,,,-99.99,PWS SA v1.10,2013-11-14 17:28:00,
2013-11-14 12:34:00,47.4,22.7,30.01,WSW,250,1.7,10.0,38,-99.99,,,-99.99,PWS SA v1.10,2013-11-14 17:34:00,
2013-11-14 12:40:00,47.3,22.8,30.00,WNW,299,1.7,8.0,38,-99.99,,,-99.99,PWS SA v1.10,2013-11-14 17:40:00,
2013-11-14 12:46:00,47.0,23.8,30.01,West,267,3.4,8.0,40,-99.99,,,-99.99,PWS SA v1.10,2013-11-14 17:46:00,
2013-11-14 12:52:00,47.5,24.4,30.01,WSW,253,3.4,8.0,41,-99.99,,,-99.99,PWS SA v1.10,2013-11-14 17:52:00,
2013-11-14 12:58:00,47.8,22.7,30.00,SSW,202,3.4,5.0,37,-99.99,,,-99.99,PWS SA v1.10,2013-11-14 17:58:00,
2013-11-14 13:04:00,48.2,24.0,30.00,NNW,343,1.7,3.0,39,-99.99,,,-99.99,PWS SA v1.10,2013-11-14 18:04:00,
2013-11-14 13:10:00,48.3,24.1,30.00,WSW,256,5.1,6.0,39,-99.99,,,-99.99,PWS SA v1.10,2013-11-14 18:10:00,
2013-11-14 13:16:00,48.9,23.3,30.00,North,0,0.0,6.0,37,-99.99,,,-99.99,PWS SA v1.10,2013-11-14 18:16:00,
2013-11-14 13:22:00,49.0,23.3,29.99,SSE,158,1.7,12.0,36,-99.99,,,-99.99,PWS SA v1.10,2013-11-14 18:22:00,
2013-11-14 13:28:00,49.0,23.6,30.00,NW,316,1.7,12.0,37,-99.99,,,-99.99,PWS SA v1.10,2013-11-14 18:28:00,
2013-11-14 13:34:00,49.3,23.7,30.00,WNW,282,1.7,12.0,37,-99.99,,,-99.99,PWS SA v1.10,2013-11-14 18:34:00,
2013-11-14 13:40:00,49.5,24.4,30.00,North,0,0.0,10.0,38,-99.99,,,-99.99,PWS SA v1.10,2013-11-14 18:40:00,
2013-11-14 13:46:00,49.5,24.3,30.00,SW,218,3.4,8.0,37,-99.99,,,-99.99,PWS SA v1.10,2013-11-14 18:46:00,
2013-11-14 13:52:00,50.0,25.3,30.00,WNW,300,1.7,3.0,39,-99.99,,,-99.99,PWS SA v1.10,2013-11-14 18:52:00,
2013-11-14 13:58:00,50.6,25.2,30.00,West,266,3.4,8.0,38,-99.99,,,-99.99,PWS SA v1.10,2013-11-14 18:58:00,
2013-11-14 14:04:00,50.6,24.6,30.00,WNW,299,1.7,8.0,37,-99.99,,,-99.99,PWS SA v1.10,2013-11-14 19:04:00,
2013-11-14 14:10:00,50.3,24.9,30.00,WNW,285,1.7,8.0,38,-99.99,,,-99.99,PWS SA v1.10,2013-11-14 19:10:00,
2013-11-14 14:16:00,50.9,25.7,30.00,WNW,291,1.7,8.0,38,-99.99,,,-99.99,PWS SA v1.10,2013-11-14 19:16:00,
2013-11-14 14:22:00,51.0,24.8,30.00,West,264,3.4,6.0,37,-99.99,,,-99.99,PWS SA v1.10,2013-11-14 19:22:00,
2013-11-14 14:28:00,51.6,26.4,30.00,SSW,200,3.4,10.0,38,-99.99,,,-99.99,PWS SA v1.10,2013-11-14 19:28:00,
2013-11-14 14:34:00,52.3,26.0,30.00,WSW,251,1.7,10.0,37,-99.99,,,-99.99,PWS SA v1.10,2013-11-14 19:34:00,
2013-11-14 14:40:00,51.9,26.1,30.00,WSW,257,3.1,6.0,37,-99.99,,,-99.99,PWS SA v1.10,2013-11-14 19:40:00,
2013-11-14 14:46:00,51.4,25.9,30.00,WSW,249,3.4,6.0,37,-99.99,,,-99.99,PWS SA v1.10,2013-11-14 19:46:00,
2013-11-14 14:52:00,50.9,26.2,30.00,North,358,3.4,6.0,39,-99.99,,,-99.99,PWS SA v1.10,2013-11-14 19:52:00,
2013-11-14 14:58:00,50.6,26.1,30.00,SW,214,1.7,6.0,39,-99.99,,,-99.99,PWS SA v1.10,2013-11-14 19:58:00,
2013-11-14 15:04:00,50.3,25.9,30.01,North,0,0.0,5.0,39,-99.99,,,-99.99,PWS SA v1.10,2013-11-14 20:04:00,
2013-11-14 15:10:00,50.1,26.4,30.01,North,0,0.0,3.0,40,-99.99,,,-99.99,PWS SA v1.10,2013-11-14 20:10:00,
2013-11-14 15:16:00,49.8,25.9,30.00,WSW,244,1.7,3.0,40,-99.99,,,-99.99,PWS SA v1.10,2013-11-14 20:16:00,
2013-11-14 15:22:00,49.8,26.0,30.01,North,0,0.0,3.0,40,-99.99,,,-99.99,PWS SA v1.10,2013-11-14 20:22:00,
2013-11-14 15:28:00,49.6,26.0,30.01,North,0,0.0,1.0,40,-99.99,,,-99.99,PWS SA v1.10,2013-11-14 20:28:00,
2013-11-14 15:34:00,49.2,26.6,30.02,North,0,0.0,1.0,42,-99.99,,,-99.99,PWS SA v1.10,2013-11-14 20:34:00,
2013-11-14 15:40:00,49.0,26.5,30.02,West,266,1.7,1.7,42,-99.99,,,-99.99,PWS SA v1.10,2013-11-14 20:40:00,
2013-11-14 15:46:00,48.7,26.5,30.02,North,0,0.0,1.0,43,-99.99,,,-99.99,PWS SA v1.10,2013-11-14 20:46:00,
2013-11-14 15:52:00,48.2,26.9,30.02,North,0,0.0,1.0,44,-99.99,,,-99.99,PWS SA v1.10,2013-11-14 20:52:00,
2013-11-14 15:58:00,47.6,27.4,30.02,North,0,0.0,1.0,46,-99.99,,,-99.99,PWS SA v1.10,2013-11-14 20:58:00,
2013-11-14 16:04:00,47.3,27.5,30.02,North,0,0.0,5.0,47,-99.99,,,-99.99,PWS SA v1.10,2013-11-14 21:04:00,
2013-11-14 16:10:00,46.5,27.6,30.02,North,0,0.0,5.0,49,-99.99,,,-99.99,PWS SA v1.10,2013-11-14 21:10:00,
2013-11-14 16:16:00,45.6,29.0,30.02,North,0,0.0,3.0,53,-99.99,,,-99.99,PWS SA v1.10,2013-11-14 21:16:00,
2013-11-14 16:22:00,44.6,29.1,30.02,North,0,0.0,0.0,55,-99.99,,,-99.99,PWS SA v1.10,2013-11-14 21:22:00,
2013-11-14 16:28:00,44.0,28.6,30.02,North,0,0.0,0.0,55,-99.99,,,-99.99,PWS SA v1.10,2013-11-14 21:28:00,
2013-11-14 16:34:00,43.5,28.2,30.02,North,0,0.0,0.0,56,-99.99,,,-99.99,PWS SA v1.10,2013-11-14 21:34:00,
2013-11-14 16:40:00,42.9,28.5,30.01,North,0,0.0,0.0,58,-99.99,,,-99.99,PWS SA v1.10,2013-11-14 21:40:00,
2013-11-14 16:46:00,42.6,28.4,30.03,North,0,0.0,0.0,58,-99.99,,,-99.99,PWS SA v1.10,2013-11-14 21:46:00,
2013-11-14 16:52:00,42.2,28.3,30.03,North,0,0.0,0.0,59,-99.99,,,-99.99,PWS SA v1.10,2013-11-14 21:52:00,
2013-11-14 16:58:00,42.1,28.5,30.02,North,0,0.0,0.0,60,-99.99,,,-99.99,PWS SA v1.10,2013-11-14 21:58:00,
2013-11-14 17:04:00,42.0,28.3,30.03,North,0,0.0,0.0,59,-99.99,,,-99.99,PWS SA v1.10,2013-11-14 22:04:00,
2013-11-14 17:10:00,42.0,28.7,30.03,North,0,0.0,0.0,60,-99.99,,,-99.99,PWS SA v1.10,2013-11-14 22:10:00,
2013-11-14 17:16:00,42.0,28.0,30.03,North,0,0.0,1.0,58,-99.99,,,-99.99,PWS SA v1.10,2013-11-14 22:16:00,
2013-11-14 17:22:00,41.9,28.6,30.03,WSW,237,1.7,1.7,60,-99.99,,,-99.99,PWS SA v1.10,2013-11-14 22:22:00,
2013-11-14 17:28:00,41.9,27.7,30.04,North,0,0.0,3.0,58,-99.99,,,-99.99,PWS SA v1.10,2013-11-14 22:28:00,
2013-11-14 17:34:00,41.9,27.8,30.04,SSW,211,3.4,3.4,58,-99.99,,,-99.99,PWS SA v1.10,2013-11-14 22:34:00,
2013-11-14 17:40:00,41.7,28.4,30.04,North,0,0.0,3.0,60,-99.99,,,-99.99,PWS SA v1.10,2013-11-14 22:40:00,
2013-11-14 17:46:00,41.9,27.3,30.05,WSW,240,1.7,5.0,57,-99.99,,,-99.99,PWS SA v1.10,2013-11-14 22:46:00,
2013-11-14 17:52:00,42.0,27.8,30.05,SW,225,1.7,5.0,58,-99.99,,,-99.99,PWS SA v1.10,2013-11-14 22:52:00,
2013-11-14 17:58:00,42.5,26.0,30.05,North,0,0.0,5.0,53,-99.99,,,-99.99,PWS SA v1.10,2013-11-14 22:58:00,
2013-11-14 18:04:00,43.0,25.5,30.05,North,0,0.0,3.0,51,-99.99,,,-99.99,PWS SA v1.10,2013-11-14 23:04:00,
2013-11-14 18:10:00,42.2,25.8,30.06,North,0,0.0,3.0,53,-99.99,,,-99.99,PWS SA v1.10,2013-11-14 23:10:00,
2013-11-14 18:16:00,41.6,27.3,30.06,North,0,0.0,3.0,57,-99.99,,,-99.99,PWS SA v1.10,2013-11-14 23:16:00,
2013-11-14 18:22:00,41.1,26.9,30.06,North,0,0.0,1.0,58,-99.99,,,-99.99,PWS SA v1.10,2013-11-14 23:22:00,
2013-11-14 18:28:00,40.5,27.8,30.05,North,0,0.0,1.0,61,-99.99,,,-99.99,PWS SA v1.10,2013-11-14 23:28:00,
2013-11-14 18:34:00,40.2,27.1,30.06,North,0,0.0,0.0,60,-99.99,,,-99.99,PWS SA v1.10,2013-11-14 23:34:00,
2013-11-14 18:40:00,39.9,27.6,30.06,North,0,0.0,0.0,62,-99.99,,,-99.99,PWS SA v1.10,2013-11-14 23:40:00,
2013-11-14 18:46:00,39.7,26.9,30.06,North,0,0.0,0.0,61,-99.99,,,-99.99,PWS SA v1.10,2013-11-14 23:46:00,
2013-11-14 18:52:00,39.5,26.7,30.06,North,0,0.0,0.0,61,-99.99,,,-99.99,PWS SA v1.10,2013-11-14 23:52:00,
2013-11-14 18:58:00,39.4,26.7,30.06,North,0,0.0,0.0,62,-99.99,,,-99.99,PWS SA v1.10,2013-11-14 23:58:00,
2013-11-14 19:04:00,39.4,26.4,30.06,North,0,0.0,0.0,60,-99.99,,,-99.99,PWS SA v1.10,2013-11-15 00:04:00,
2013-11-14 19:10:00,39.4,26.4,30.06,North,0,0.0,1.0,61,-99.99,,,-99.99,PWS SA v1.10,2013-11-15 00:10:00,
2013-11-14 19:16:00,39.3,26.0,30.06,North,0,0.0,1.0,60,-99.99,,,-99.99,PWS SA v1.10,2013-11-15 00:16:00,
2013-11-14 19:22:00,39.4,25.3,30.06,North,0,0.0,1.0,58,-99.99,,,-99.99,PWS SA v1.10,2013-11-15 00:22:00,
2013-11-14 19:28:00,39.3,25.6,30.06,North,0,0.0,0.0,59,-99.99,,,-99.99,PWS SA v1.10,2013-11-15 00:28:00,
2013-11-14 19:34:00,38.9,26.4,30.06,North,0,0.0,0.0,62,-99.99,,,-99.99,PWS SA v1.10,2013-11-15 00:34:00,
2013-11-14 19:40:00,38.8,26.4,30.06,North,0,0.0,0.0,62,-99.99,,,-99.99,PWS SA v1.10,2013-11-15 00:40:00,
2013-11-14 19:46:00,38.6,26.1,30.06,North,0,0.0,0.0,61,-99.99,,,-99.99,PWS SA v1.10,2013-11-15 00:46:00,
2013-11-14 19:52:00,38.4,26.1,30.06,SW,226,1.7,1.7,62,-99.99,,,-99.99,PWS SA v1.10,2013-11-15 00:52:00,
2013-11-14 19:58:00,38.1,26.0,30.07,North,0,0.0,1.0,62,-99.99,,,-99.99,PWS SA v1.10,2013-11-15 00:58:00,
2013-11-14 20:04:00,38.3,25.3,30.06,SSW,196,1.7,1.7,61,-99.99,,,-99.99,PWS SA v1.10,2013-11-15 01:04:00,
2013-11-14 20:10:00,37.8,26.3,30.06,North,0,0.0,1.0,63,-99.99,,,-99.99,PWS SA v1.10,2013-11-15 01:10:00,
2013-11-14 20:16:00,37.5,26.0,30.06,North,0,0.0,1.0,64,-99.99,,,-99.99,PWS SA v1.10,2013-11-15 01:16:00,
2013-11-14 20:22:00,37.3,25.3,30.06,North,0,0.0,0.0,63,-99.99,,,-99.99,PWS SA v1.10,2013-11-15 01:22:00,
2013-11-14 20:28:00,37.0,25.9,30.06,North,0,0.0,0.0,65,-99.99,,,-99.99,PWS SA v1.10,2013-11-15 01:28:00,
2013-11-14 20:34:00,36.9,25.8,30.06,North,0,0.0,0.0,65,-99.99,,,-99.99,PWS SA v1.10,2013-11-15 01:34:00,
2013-11-14 20:40:00,36.7,25.7,30.06,North,0,0.0,0.0,65,-99.99,,,-99.99,PWS SA v1.10,2013-11-15 01:40:00,
2013-11-14 20:46:00,36.5,26.3,30.06,North,0,0.0,0.0,67,-99.99,,,-99.99,PWS SA v1.10,2013-11-15 01:46:00,
2013-11-14 20:52:00,36.3,26.6,30.07,North,0,0.0,0.0,68,-99.99,,,-99.99,PWS SA v1.10,2013-11-15 01:52:00,
2013-11-14 20:58:00,36.0,25.7,30.07,North,0,0.0,0.0,67,-99.99,,,-99.99,PWS SA v1.10,2013-11-15 01:58:00,
2013-11-14 21:04:00,36.1,25.5,30.06,North,0,0.0,0.0,66,-99.99,,,-99.99,PWS SA v1.10,2013-11-15 02:04:00,
2013-11-14 21:10:00,36.1,26.0,30.07,North,0,0.0,0.0,67,-99.99,,,-99.99,PWS SA v1.10,2013-11-15 02:10:00,
2013-11-14 21:16:00,36.2,26.1,30.07,North,0,0.0,0.0,67,-99.99,,,-99.99,PWS SA v1.10,2013-11-15 02:16:00,
2013-11-14 21:22:00,36.2,25.5,30.07,North,0,0.0,1.0,66,-99.99,,,-99.99,PWS SA v1.10,2013-11-15 02:22:00,
2013-11-14 21:28:00,35.8,26.3,30.07,North,0,0.0,1.0,69,-99.99,,,-99.99,PWS SA v1.10,2013-11-15 02:28:00,
2013-11-14 21:34:00,35.9,25.8,30.07,North,0,0.0,1.0,68,-99.99,,,-99.99,PWS SA v1.10,2013-11-15 02:34:00,
2013-11-14 21:40:00,36.2,25.7,30.07,North,0,0.0,3.0,67,-99.99,,,-99.99,PWS SA v1.10,2013-11-15 02:40:00,
2013-11-14 21:46:00,36.3,25.2,30.07,North,0,0.0,3.0,65,-99.99,,,-99.99,PWS SA v1.10,2013-11-15 02:46:00,
2013-11-14 21:52:00,36.5,25.4,30.07,North,0,0.0,3.0,65,-99.99,,,-99.99,PWS SA v1.10,2013-11-15 02:52:00,
2013-11-14 21:58:00,36.7,25.4,30.07,North,0,0.0,1.0,65,-99.99,,,-99.99,PWS SA v1.10,2013-11-15 02:58:00,
2013-11-14 22:04:00,36.7,25.5,30.07,North,0,0.0,1.0,65,-99.99,,,-99.99,PWS SA v1.10,2013-11-15 03:04:00,
2013-11-14 22:10:00,36.9,25.1,30.07,North,0,0.0,0.0,63,-99.99,,,-99.99,PWS SA v1.10,2013-11-15 03:10:00,
2013-11-14 22:16:00,36.9,25.7,30.07,North,0,0.0,1.0,64,-99.99,,,-99.99,PWS SA v1.10,2013-11-15 03:16:00,
2013-11-14 22:22:00,36.9,25.9,30.07,North,0,0.0,5.0,65,-99.99,,,-99.99,PWS SA v1.10,2013-11-15 03:22:00,
2013-11-14 22:28:00,36.6,25.2,30.07,North,0,0.0,5.0,64,-99.99,,,-99.99,PWS SA v1.10,2013-11-15 03:28:00,
2013-11-14 22:34:00,36.5,24.9,30.07,North,0,0.0,1.0,64,-99.99,,,-99.99,PWS SA v1.10,2013-11-15 03:34:00,
2013-11-14 22:40:00,36.4,25.6,30.07,North,0,0.0,1.0,66,-99.99,,,-99.99,PWS SA v1.10,2013-11-15 03:40:00,
2013-11-14 22:46:00,36.3,25.1,30.07,North,0,0.0,1.0,65,-99.99,,,-99.99,PWS SA v1.10,2013-11-15 03:46:00,
2013-11-14 22:52:00,36.3,25.5,30.07,North,0,0.0,1.0,66,-99.99,,,-99.99,PWS SA v1.10,2013-11-15 03:52:00,
2013-11-14 22:58:00,36.1,25.3,30.08,North,0,0.0,1.0,65,-99.99,,,-99.99,PWS SA v1.10,2013-11-15 03:58:00,
2013-11-14 23:04:00,36.1,24.9,30.07,North,0,0.0,1.0,65,-99.99,,,-99.99,PWS SA v1.10,2013-11-15 04:04:00,
2013-11-14 23:10:00,35.9,24.7,30.08,North,0,0.0,1.0,65,-99.99,,,-99.99,PWS SA v1.10,2013-11-15 04:10:00,
2013-11-14 23:16:00,35.5,25.1,30.08,North,0,0.0,1.0,66,-99.99,,,-99.99,PWS SA v1.10,2013-11-15 04:16:00,
2013-11-14 23:22:00,35.5,25.1,30.07,North,0,0.0,0.0,67,-99.99,,,-99.99,PWS SA v1.10,2013-11-15 04:22:00,
2013-11-14 23:28:00,35.3,25.1,30.07,North,0,0.0,0.0,67,-99.99,,,-99.99,PWS SA v1.10,2013-11-15 04:28:00,
2013-11-14 23:34:00,35.3,25.0,30.07,North,0,0.0,0.0,67,-99.99,,,-99.99,PWS SA v1.10,2013-11-15 04:34:00,
2013-11-14 23:40:00,35.3,24.5,30.08,North,0,0.0,0.0,65,-99.99,,,-99.99,PWS SA v1.10,2013-11-15 04:40:00,
2013-11-14 23:46:00,35.5,24.7,30.07,North,0,0.0,0.0,66,-99.99,,,-99.99,PWS SA v1.10,2013-11-15 04:46:00,
2013-11-14 23:52:00,35.4,24.2,30.07,WSW,239,1.7,1.7,65,-99.99,,,-99.99,PWS SA v1.10,2013-11-15 04:52:00,
2013-11-14 23:58:00,35.8,23.5,30.07,North,0,0.0,1.0,62,-99.99,,,-99.99,PWS SA v1.10,2013-11-15 04:58:00,